STARLINK-35267

Last updated on Tue Oct 14 2025 00:02:05 GMT+0000 (Coordinated Universal Time)

1 65592U 25207A 25286.41664585 .00065494 00000+0 16656-2 0 9998 2 65592 97.6049 349.8135 0001859 93.7420 266.4038 15.39371411 5857

Satellite not in orbit

STARLINK-35267